DW2213 Weather Reports


time (UTC)temp
F
wind
direction
speed
knots
gust
knots
rain 1hr
in
rain 24hr
in
rain mn
in
humidity
%
barometer
mb
20260905050804 74 296 0.0 0.0 0.00 0.00 0.00 89 1015.1
20260905050304 74 296 0.0 0.0 0.00 0.00 0.00 89 1015.1
20260905045805 74 296 0.0 0.0 0.00 0.00 0.00 90 1015.1
20260905045306 74 296 0.0 0.0 0.00 0.00 0.00 90 1015.1
20260905044804 74 296 0.0 0.0 0.00 0.00 0.00 90 1015.1
20260905044304 74 296 0.0 0.0 0.00 0.00 0.00 90 1015.2
20260905043304 75 300 0.0 0.9 0.00 0.00 0.00 90 1015.1
20260905042804 75 301 0.0 0.0 0.00 0.00 0.00 90 1015.1
20260905042307 75 300 0.0 0.0 0.00 0.00 0.00 90 1015.1
20260905041804 75 300 0.0 0.0 0.00 0.00 0.00 89 1015.1
20260905041304 75 300 0.0 0.0 0.00 0.00 0.00 90 1015.0
20260905040805 75 300 0.0 0.9 0.00 0.00 0.00 90 1014.9
20260905040305 75 299 0.0 0.0 0.00 0.00 0.00 89 1015.0
20260905035804 75 302 0.0 0.0 0.00 0.00 0.00 89 1015.0
20260905035306 75 302 0.0 0.0 0.00 0.00 0.00 89 1015.0
20260905034805 75 302 0.0 0.0 0.00 0.00 0.00 89 1015.0
20260905034305 75 302 0.0 0.0 0.00 0.00 0.00 89 1015.1
20260905033304 76 302 0.0 0.0 0.00 0.00 0.00 89 1015.0
20260905032804 76 302 0.0 0.0 0.00 0.00 0.00 89 1014.9
20260905031804 76 302 0.0 0.0 0.00 0.00 0.00 89 1015.0
20260905031304 76 302 0.0 0.0 0.00 0.00 0.00 88 1015.0
20260905030805 76 302 0.0 0.0 0.00 0.00 0.00 88 1015.0
20260905025804 76 301 0.0 0.0 0.00 0.00 0.00 88 1014.9
20260905025306 76 302 0.0 0.0 0.00 0.00 0.00 88 1014.9
20260905024805 76 302 0.0 0.0 0.00 0.00 0.00 88 1014.9
20260905024304 76 302 0.0 0.0 0.00 0.00 0.00 88 1014.9
20260905023304 77 300 0.0 0.0 0.00 0.00 0.00 88 1014.8
20260905022804 77 299 0.0 0.0 0.00 0.00 0.00 88 1014.8
20260905021804 77 302 0.0 1.7 0.00 0.00 0.00 88 1014.7
20260905021304 77 306 0.0 0.0 0.00 0.00 0.00 88 1014.7
20260905020805 77 302 0.0 0.0 0.00 0.00 0.00 88 1014.8
20260905020304 77 299 0.0 1.7 0.00 0.00 0.00 88 1014.7
20260905015804 77 307 0.0 2.6 0.00 0.00 0.00 88 1014.7
20260905015306 77 305 0.0 0.0 0.00 0.00 0.00 87 1014.7
20260905014804 77 299 0.0 2.6 0.00 0.00 0.00 87 1014.7
20260905014305 77 299 0.0 1.7 0.00 0.00 0.00 87 1014.6
20260905013305 77 294 0.0 0.0 0.00 0.00 0.00 87 1014.6
20260905012804 77 290 0.0 0.0 0.00 0.00 0.00 87 1014.6
20260905012306 77 289 0.0 0.0 0.00 0.00 0.00 87 1014.6
20260905011804 77 288 0.0 0.0 0.00 0.00 0.00 87 1014.6
20260905011305 77 289 0.0 0.0 0.00 0.00 0.00 87 1014.6
20260905010304 77 290 0.0 0.0 0.00 0.00 0.00 87 1014.6
20260905005804 77 290 0.0 0.0 0.00 0.00 0.00 87 1014.6
20260905005306 77 288 0.0 0.0 0.00 0.00 0.00 87 1014.7
20260905004804 78 289 0.0 0.0 0.00 0.00 0.00 87 1014.8
20260905004305 78 288 0.0 0.0 0.00 0.00 0.00 87 1014.8
20260905003304 78 288 0.0 0.0 0.00 0.00 0.00 87 1014.8
20260905002804 78 288 0.0 0.0 0.00 0.00 0.00 87 1014.8
20260905002306 78 288 0.0 0.0 0.00 0.00 0.00 87 1014.7
20260905001804 78 288 0.0 0.0 0.00 0.00 0.00 87 1014.8
20260905001304 78 288 0.0 0.0 0.00 0.00 0.00 87 1014.8
20260905000305 78 288 0.0 0.0 0.00 0.00 0.00 86 1014.8
20260904235805 78 288 0.0 0.0 0.00 0.00 0.00 86 1014.8
20260904234804 78 288 0.0 0.0 0.00 0.00 0.00 86 1014.9
20260904234304 78 288 0.0 0.0 0.00 0.00 0.00 86 1014.9
20260904233804 79 288 0.0 0.0 0.00 0.00 0.00 86 1014.9
20260904233304 79 291 0.0 0.0 0.00 0.00 0.00 86 1014.9
20260904232804 79 291 0.0 0.0 0.00 0.00 0.00 86 1015.0
20260904232306 79 291 0.0 0.0 0.00 0.00 0.00 86 1015.0
20260904231804 78 292 0.0 0.0 0.00 0.00 0.00 86 1015.0
20260904231304 78 292 0.0 0.0 0.00 0.00 0.00 86 1014.9
20260904230804 79 292 0.0 0.0 0.00 0.00 0.00 86 1014.8
20260904230304 79 292 0.0 0.0 0.00 0.00 0.00 86 1014.8
20260904225805 79 293 0.0 0.0 0.00 0.00 0.00 86 1014.8
20260904225305 79 294 0.0 0.0 0.00 0.00 0.00 86 1014.8
20260904223804 79 293 0.0 0.0 0.00 0.00 0.00 86 1014.7
20260904223304 79 293 0.0 0.0 0.00 0.00 0.00 86 1014.7
20260904222804 79 293 0.0 0.0 0.00 0.00 0.00 86 1014.7
20260904222306 79 294 0.0 0.0 0.00 0.00 0.00 86 1014.6
20260904221804 79 294 0.0 0.0 0.00 0.00 0.00 85 1014.6
20260904220817 79 294 0.0 0.0 0.00 0.00 0.00 86 1014.7
20260904220305 79 294 0.0 0.0 0.00 0.00 0.00 86 1014.6
20260904215804 79 294 0.0 0.0 0.00 0.00 0.00 86 1014.6
20260904215305 79 294 0.0 0.0 0.00 0.00 0.00 85 1014.7
20260904213804 80 294 0.0 0.0 0.00 0.00 0.00 85 1014.7
20260904213304 80 294 0.0 0.0 0.00 0.00 0.00 85 1014.7
20260904212804 80 294 0.0 0.0 0.00 0.00 0.00 85 1014.7
20260904212306 80 294 0.0 0.0 0.00 0.00 0.00 85 1014.7
20260904211804 80 294 0.0 0.0 0.00 0.00 0.00 85 1014.7
20260904211303 80 294 0.0 0.0 0.00 0.00 0.00 84 1014.8
20260904210804 80 294 0.0 0.0 0.00 0.00 0.00 85 1014.8
20260904210304 80 294 0.0 0.0 0.00 0.00 0.00 85 1014.7
20260904205804 80 294 0.0 0.0 0.00 0.00 0.00 84 1014.8
20260904205305 80 294 0.0 0.0 0.00 0.00 0.00 84 1014.8
20260904204804 80 294 0.0 0.0 0.00 0.00 0.00 84 1014.7
20260904203804 81 296 0.0 0.0 0.00 0.00 0.00 83 1014.6
20260904203304 81 337 0.0 0.0 0.00 0.00 0.00 83 1014.6
20260904202804 81 337 0.0 0.0 0.00 0.00 0.00 83 1014.5
20260904201804 81 337 0.0 0.0 0.00 0.00 0.00 83 1014.5
20260904201304 81 336 0.0 0.0 0.00 0.00 0.00 83 1014.5
20260904200804 81 337 0.0 0.0 0.00 0.00 0.00 83 1014.5
20260904200304 81 337 0.0 0.0 0.00 0.00 0.00 83 1014.4
20260904195804 81 337 0.0 0.0 0.00 0.00 0.00 83 1014.4
20260904194803 81 339 0.0 0.0 0.00 0.00 0.00 82 1014.3
20260904194303 82 339 0.0 0.0 0.00 0.00 0.00 82 1014.2
20260904193803 82 338 0.0 0.0 0.00 0.00 0.00 82 1014.2
20260904193304 82 338 0.0 0.0 0.00 0.00 0.00 82 1014.2
20260904192804 82 339 0.0 1.7 0.00 0.00 0.00 81 1014.0
20260904192306 82 338 0.9 2.6 0.00 0.00 0.00 81 1014.0
20260904191303 82 329 0.0 1.7 0.00 0.00 0.00 81 1013.9
20260904190304 82 324 0.0 1.7 0.00 0.00 0.00 80 1013.7
20260904185804 82 333 0.0 2.6 0.00 0.00 0.00 80 1013.7
20260904184304 83 340 0.0 2.6 0.00 0.00 0.00 79 1013.6
20260904183304 83 323 0.0 2.6 0.00 0.00 0.00 79 1013.4
20260904182804 83 334 0.0 0.0 0.00 0.00 0.00 79 1013.5
20260904182306 84 336 0.0 2.6 0.00 0.00 0.00 78 1013.4
20260904180804 84 334 0.0 0.9 0.00 0.00 0.00 78 1013.3
20260904180304 84 330 0.0 0.0 0.00 0.00 0.00 78 1013.2
20260904175305 85 330 0.0 2.6 0.00 0.00 0.00 79 1013.2
20260904174804 85 345 0.9 2.6 0.00 0.00 0.00 78 1013.2
20260904174303 85 308 1.7 4.3 0.00 0.00 0.00 78 1013.1
20260904173803 85 42 0.9 4.3 0.00 0.00 0.00 78 1013.1
20260904173304 85 6 0.9 5.2 0.00 0.00 0.00 78 1013.1
20260904172305 86 16 1.7 5.2 0.00 0.00 0.00 77 1013.1
20260904171804 86 61 0.9 5.2 0.00 0.00 0.00 76 1013.0
20260904171303 87 340 1.7 4.3 0.00 0.00 0.00 75 1013.0
20260904170804 88 23 0.9 4.3 0.00 0.00 0.00 73 1013.0
20260904165805 88 326 0.9 2.6 0.00 0.00 0.00 72 1012.9
20260904164805 90 355 1.7 5.2 0.00 0.00 0.00 69 1012.9
20260904164305 91 355 0.9 5.2 0.00 0.00 0.00 67 1012.8
20260904163805 92 51 0.9 5.2 0.00 0.00 0.00 63 1012.8
20260904163305 94 11 0.9 4.3 0.00 0.00 0.00 55 1012.8
20260904162804 95 98 0.0 1.7 0.00 0.00 0.00 45 1012.7
20260904162306 96 98 0.0 1.7 0.00 0.00 0.00 42 1012.9
20260904161805 96 98 0.0 1.7 0.00 0.00 0.00 41 1012.9
20260904161304 96 98 0.0 2.6 0.00 0.00 0.00 41 1012.8
20260904160805 96 121 0.0 0.0 0.00 0.00 0.00 41 1012.8
20260904160305 96 121 0.0 0.9 0.00 0.00 0.00 42 1012.8
20260904155804 96 121 0.0 1.7 0.00 0.00 0.00 43 1012.8
20260904154805 95 126 0.9 4.3 0.00 0.00 0.00 44 1012.8
20260904153805 95 138 0.9 1.7 0.00 0.00 0.00 45 1012.8
20260904153305 95 144 0.9 4.3 0.00 0.00 0.00 46 1012.8
20260904152805 95 144 0.0 0.9 0.00 0.00 0.00 48 1012.8
20260904152306 95 147 0.0 1.7 0.00 0.00 0.00 48 1012.9
20260904151805 95 148 0.0 1.7 0.00 0.00 0.00 50 1012.9
20260904151305 95 147 0.9 2.6 0.00 0.00 0.00 50 1012.9
20260904150305 95 138 1.7 2.6 0.00 0.00 0.00 50 1012.7
20260904145805 95 122 0.9 4.3 0.00 0.00 0.00 49 1012.7
20260904145306 95 129 0.9 2.6 0.00 0.00 0.00 49 1012.8
20260904144805 95 130 0.9 2.6 0.00 0.00 0.00 49 1012.8
20260904143805 95 128 0.9 4.3 0.00 0.00 0.00 51 1012.9
20260904143305 95 107 0.0 4.3 0.00 0.00 0.00 52 1012.9
20260904142306 95 129 0.9 6.1 0.00 0.00 0.00 53 1012.9
20260904141805 95 115 0.9 5.2 0.00 0.00 0.00 53 1012.9
20260904141305 96 151 1.7 4.3 0.00 0.00 0.00 51 1012.9
20260904140805 96 134 0.9 4.3 0.00 0.00 0.00 52 1012.9
20260904135805 95 121 0.9 5.2 0.00 0.00 0.00 52 1013.1
20260904135306 96 117 1.7 5.2 0.00 0.00 0.00 52 1013.2
20260904134805 97 64 0.9 2.6 0.00 0.00 0.00 52 1013.2
20260904134305 97 153 0.0 4.3 0.00 0.00 0.00 52 1013.3
20260904133305 96 137 1.7 5.2 0.00 0.00 0.00 52 1013.5
20260904132805 96 144 1.7 5.2 0.00 0.00 0.00 53 1013.6
20260904132306 96 141 1.7 5.2 0.00 0.00 0.00 53 1013.6
20260904131805 96 142 1.7 4.3 0.00 0.00 0.00 55 1013.6
20260904130805 95 120 0.0 4.3 0.00 0.00 0.00 58 1013.8
20260904130305 95 130 0.9 2.6 0.00 0.00 0.00 58 1013.8
20260904125805 94 101 0.9 2.6 0.00 0.00 0.00 59 1013.9
20260904125305 94 114 0.9 2.6 0.00 0.00 0.00 59 1013.9
20260904124804 94 133 0.9 2.6 0.00 0.00 0.00 59 1014.0
20260904124305 94 130 0.0 0.9 0.00 0.00 0.00 60 1014.0
20260904123805 94 132 0.0 1.7 0.00 0.00 0.00 60 1014.1
20260904123305 93 131 0.0 2.6 0.00 0.00 0.00 62 1014.1
20260904122805 93 116 0.9 4.3 0.00 0.00 0.00 62 1014.1
20260904122306 93 136 0.9 2.6 0.00 0.00 0.00 63 1014.2
20260904121305 92 119 0.9 5.2 0.00 0.00 0.00 65 1014.3
20260904120804 92 129 0.9 2.6 0.00 0.00 0.00 65 1014.3
20260904115805 92 95 0.0 5.2 0.00 0.00 0.00 65 1014.5
20260904115306 92 130 0.0 4.3 0.00 0.00 0.00 65 1014.5
20260904114805 91 135 0.9 5.2 0.00 0.00 0.00 67 1014.5
20260904114305 91 116 0.9 2.6 0.00 0.00 0.00 67 1014.6
20260904113804 91 136 0.9 4.3 0.00 0.00 0.00 66 1014.6
20260904113304 90 104 0.0 5.2 0.00 0.00 0.00 67 1014.6
20260904112804 90 134 0.9 5.2 0.00 0.00 0.00 67 1014.6
20260904112306 91 131 0.9 4.3 0.00 0.00 0.00 67 1014.8
20260904111805 90 128 0.9 4.3 0.00 0.00 0.00 67 1014.9
20260904111305 90 131 0.9 5.2 0.00 0.00 0.00 67 1014.9
20260904110805 90 154 0.0 4.3 0.00 0.00 0.00 68 1014.9
20260904110305 90 123 0.9 5.2 0.00 0.00 0.00 68 1015.0
20260904105805 90 131 0.9 4.3 0.00 0.00 0.00 69 1015.1
20260904105306 89 136 0.9 4.3 0.00 0.00 0.00 69 1015.1
20260904104804 89 134 0.9 5.2 0.00 0.00 0.00 69 1015.2
20260904102805 90 146 0.0 0.9 0.00 0.00 0.00 68 1015.4
20260904101805 89 146 0.0 0.0 0.00 0.00 0.00 69 1015.5
20260904101304 89 127 0.0 0.0 0.00 0.00 0.00 68 1015.5
20260904100804 89 140 0.0 0.0 0.00 0.00 0.00 68 1015.4
20260904100306 89 127 0.0 0.0 0.00 0.00 0.00 68 1015.5
20260904094805 88 144 0.0 0.9 0.00 0.00 0.00 68 1015.6
20260904093805 87 134 0.0 0.9 0.00 0.00 0.00 68 1015.6
20260904093304 87 133 0.0 0.0 0.00 0.00 0.00 70 1015.6
20260904092805 87 133 0.0 0.0 0.00 0.00 0.00 69 1015.6
20260904092306 87 132 0.0 0.9 0.00 0.00 0.00 70 1015.6
20260904091805 87 123 0.0 0.0 0.00 0.00 0.00 69 1015.5
20260904091305 87 123 0.0 0.0 0.00 0.00 0.00 69 1015.6
20260904090805 86 123 0.0 0.0 0.00 0.00 0.00 69 1015.6
20260904090304 86 123 0.0 0.0 0.00 0.00 0.00 70 1015.6
20260904085804 86 122 0.0 0.0 0.00 0.00 0.00 73 1015.6
20260904084804 85 122 0.0 0.0 0.00 0.00 0.00 75 1015.5
20260904084305 85 122 0.0 0.0 0.00 0.00 0.00 75 1015.5
20260904083804 85 122 0.0 0.0 0.00 0.00 0.00 76 1015.4
20260904083305 84 121 0.0 0.0 0.00 0.00 0.00 76 1015.5
20260904082804 84 121 0.0 0.0 0.00 0.00 0.00 77 1015.5
20260904081805 83 121 0.0 0.0 0.00 0.00 0.00 78 1015.4
20260904080804 82 121 0.0 0.0 0.00 0.00 0.00 80 1015.3
20260904080304 82 121 0.0 0.0 0.00 0.00 0.00 81 1015.3
20260904075805 81 121 0.0 0.0 0.00 0.00 0.00 81 1015.3
20260904075306 81 121 0.0 0.0 0.00 0.00 0.00 81 1015.3
20260904074804 81 121 0.0 0.0 0.00 0.00 0.00 82 1015.3
20260904074305 81 121 0.0 0.0 0.00 0.00 0.00 83 1015.3
20260904073804 80 121 0.0 0.0 0.00 0.00 0.00 84 1015.3
20260904073304 80 121 0.0 0.0 0.00 0.00 0.00 84 1015.4
20260904072805 80 121 0.0 0.0 0.00 0.00 0.00 85 1015.4
20260904072306 79 121 0.0 0.0 0.00 0.00 0.00 85 1015.4
20260904071804 79 122 0.0 0.0 0.00 0.00 0.00 86 1015.5
20260904071304 78 122 0.0 0.0 0.00 0.00 0.00 87 1015.6
20260904070804 78 122 0.0 0.0 0.00 0.00 0.00 88 1015.6
20260904070305 78 122 0.0 0.0 0.00 0.00 0.00 89 1015.6
20260904065804 77 113 0.0 0.0 0.00 0.00 0.00 89 1015.6
20260904065306 77 110 0.0 0.0 0.00 0.00 0.00 89 1015.6
20260904064305 76 110 0.0 0.0 0.00 0.00 0.00 90 1015.5
20260904063805 76 110 0.0 0.0 0.00 0.00 0.00 90 1015.5
20260904063304 76 110 0.0 0.0 0.00 0.00 0.00 90 1015.5
20260904062804 76 110 0.0 0.0 0.00 0.00 0.00 90 1015.5
20260904062306 76 110 0.0 0.0 0.00 0.00 0.00 90 1015.5
20260904061805 76 110 0.0 0.0 0.00 0.00 0.00 90 1015.5
20260904061305 76 110 0.0 0.0 0.00 0.00 0.00 90 1015.5
20260904060805 76 110 0.0 0.0 0.00 0.00 0.00 90 1015.5
20260904060304 76 110 0.0 0.0 0.00 0.00 0.00 90 1015.4
20260904053805 76 110 0.0 0.0 0.00 0.00 0.00 90 1015.3
20260904053305 76 110 0.0 0.0 0.00 0.00 0.00 90 1015.3
20260904052307 76 110 0.0 0.0 0.00 0.00 0.00 90 1015.3
20260904051804 76 110 0.0 0.0 0.00 0.00 0.00 91 1015.2
20260904051305 76 110 0.0 0.0 0.00 0.00 0.00 91 1015.3